星链-30922 (STARLINK-30922 )

导读

STARLINK-30922是美国太空探索技术公司Starlink星链互联网卫星星座中的一员,于2023年11月22日发射升空,属于星链星座部署批次中新增组网卫星。它将依托星链低轨星座架构,为全球范围内用户提供低延迟高速卫星互联网接入服务,进一步扩充星链星座的全球覆盖容量与服务能力。

基本信息
目录编号:
58414
目录名称:
STARLINK-30922
国际标识:
2023-180N
轨道中心:
EARTH
卫星名称:
星链-30922
卫星全名:
星链-30922 (STARLINK-30922 )
卫星状态:
在轨 (已飞行939 天)
发射日期:
2023-11-22 UTC
国别 :
美国 (US)
星等 :
--
轨道信息
数据来源 国际轨道数据 AOE轨道数据
星历时间 2026-06-16T04:01:01+0800
2天前
查看轨道信息
2026-06-16T06:00:00+0800
2天前
查看轨道信息
半长轴 6861.195km 6861.18km
偏心率 0.0001516 0.000177
轨道倾角 42.999° 42.990°
近地点辐角 48.478° 176.973°
升交点赤经 218.465° 218.002°
平近点角 311.620° 278.077°
近地点 482.017km 481.828km
远地点 484.099km 484.258km
周期 94.267分钟 94.267分钟
每日圈数 15.275773 15.275821
详细信息
固有亮度:
5
最大亮度:
0.3
卫星平台:
Starlink v2.0 mini
覆盖范围:
全球
运营商:
太空探索技术公司
运营商所在国:
美国
制造商(研发单位):
太空探索技术公司
制造商所在国:
美国
使用方式:
暂无
卫星简介
星链(Starlink)计划是由太空探索技术公司(SpaceX)提出的一个巨型低轨卫星互联网星座项目,计划在2019年至2024年间在太空搭建由约1.2万颗卫星组成的“星链”网络,其中1584颗将部署在地球上空550千米处的近地轨道,并从2020年开始工作。该卫星仍在工作。
2D轨道图
3D轨道图
轨道高度分析图
轨道倾角分析图
轨道综合分析图
查看轨道综合分析图